Regional Weather Roundup
Issued by NWS Goodland, KS

Home | Current Version | Previous Version | Text Only | Print | Product List | Glossary Off
Versions: 1 2 3 4 5 6 7 8 9 10 11 12 13 14 15 16 17 18 19 20 21 22 23 24 25 26 27 28 29 30 31 32 33 34 35 36 37 38 39 40 41 42 43 44 45 46 47 48 49 50

000
ASUS43 KGLD 020159
RWRGLD

GOODLAND FORECAST AREA HOURLY WEATHER ROUNDUP
NATIONAL WEATHER SERVICE GOODLAND KS
800 PM MDT WED APR 01 2015

...OFFICIAL OBSERVATIONS...

CITY           SKY/WX    TMP DP  RH WIND       PRES   REMARKS
GOODLAND KS    CLOUDY    60  40  47 N29G40    29.64F
HILL CITY KS   PTCLDY    79  30  16 W9        29.53R
IMPERIAL NEB   LGT RAIN  60  42  51 NW25G33   29.74R
MCCOOK NEB     MOCLDY    67  36  31 NW20G28   29.66R
AKRON CO       LGT RAIN  47  42  83 N13       29.86R
BURLINGTON CO  CLOUDY    59  36  42 N22G31    29.68R
LIMON CO       CLOUDY    50  39  66 N15       29.87R
$$

...UNOFFICIAL OBSERVATIONS...

CITY           SKY/WX    TMP DP  RH WIND       PRES   REMARKS
COLBY KS       CLEAR     70  37  30 N25G32    29.69R
GOVE KS          N/A     78  32  18 MISG        N/A
LENORA KS        N/A     68  32  26 MISG        N/A
NORTON KS      PTCLDY    68  34  28 N15G22    29.58R
SHARON SPRINGS   N/A     66  34  30 N17G29      N/A
TRIBUNE KS     CLOUDY    75  41  29 NW24G37   29.64R
KIT CARSON CO    N/A     64  33  32 MISG        N/A
YUMA CO          N/A     53  38  58 N25G32      N/A
$$


USA.gov is the U.S. government's official web portal to all federal, state and local government web resources and services.